Weather History for Vagabond Aaf / Yakim, WA

Change the Weather History Date:

Friday, January 24, 2014

  Actual Average (KYKM) Record (KYKM)
Temperature  
Mean Temperature 30 °F 32 °F  
Max Temperature 32 °F 41 °F 57 °F (1984)
Min Temperature 28 °F 24 °F -11 °F (1949)
Degree Days  
Heating Degree Days 35 33  
Month to date heating degree days 834  
Since 1 July heating degree days 3497  
Cooling Degree Days 0 0  
Month to date cooling degree days 0  
Year to date cooling degree days 0  
Moisture  
Dew Point 29 °F    
Average Humidity 95    
Maximum Humidity 100    
Minimum Humidity 92    
Precipitation  
Precipitation 0.00 in 0.03 in 0.36 in (1959)
Month to date precipitation 0.92  
Year to date precipitation 0.92  
Snow  
Snow 0.00 in 0.10 in 2.70 in (1972)
Month to date snowfall 4.5  
Year to date snowfall 4.5  
Since 1 July snowfall 17.5  
Snow Depth -    
Sea Level Pressure  
Sea Level Pressure 30.62 in    
Wind  
Wind Speed 2 mph (SW)    
Max Wind Speed 6 mph    
Max Gust Speed -    
Visibility 5 miles    
Events Fog , Rain    
T = Trace of Precipitation, MM = Missing Value Source: NWS Daily Summary

Daily Weather History Graph

Daily Weather History Graph

Search for Another Location

Airport:

Trip Planner

Search our weather history database for the weather conditions in past years. The results will help you decide how hot, cold, wet, or windy it might be!

Date:

Astronomy

Jan. 24, 2014 Rise Set
Actual Time 7:34 AM PST 4:53 PM PST
Civil Twilight 7:01 AM PST 5:26 PM PST
Nautical Twilight 6:24 AM PST 6:03 PM PST
Astronomical Twilight 5:48 AM PST 6:39 PM PST
Moon 1:02 AM PST (1/24) 11:19 AM PST (1/24)
Length of Visible Light 10h 25m
Length of Day
9h 19m
Last Quarter, 43% of the Moon is Illuminated
Jan 24
Last Quarter
Jan 30
New
Feb 6
First Quarter
Feb 14
Full
Feb 22
Last Quarter

Hourly Weather History & Observations

Time (PST) Temp. Windchill Dew Point Humidity Pressure Visibility Wind Dir Wind Speed Gust Speed Precip Events Conditions
12:01 AM 32.0 °F - 30.2 °F 93% 30.63 in 1.6 mi NW 2.3 mph - N/A   Overcast
12:06 AM 32.0 °F - 30.2 °F 93% 30.63 in 0.8 mi Variable 1.2 mph - N/A Fog Fog
12:56 AM 31.1 °F - 30.6 °F 98% 30.63 in 1.5 mi Variable 1.2 mph - N/A   Overcast
1:01 AM 32.0 °F - 30.2 °F 93% 30.63 in 4.0 mi West 2.3 mph - N/A   Overcast
1:21 AM 30.2 °F 26.7 °F 30.2 °F 100% 30.64 in 3.0 mi Variable 3.5 mph - N/A   Overcast
1:56 AM 30.9 °F 27.5 °F 30.0 °F 96% 30.65 in 4.0 mi SSW 3.5 mph - N/A   Overcast
2:56 AM 30.7 °F 27.3 °F 29.7 °F 96% 30.65 in 5.0 mi South 3.5 mph - N/A   Overcast
3:31 AM 30.2 °F - 30.2 °F 100% 30.65 in 6.0 mi WSW 2.3 mph - N/A   Overcast
3:56 AM 30.6 °F - 29.5 °F 96% 30.64 in 5.0 mi South 2.3 mph - N/A   Overcast
4:56 AM 30.6 °F - 29.1 °F 94% 30.64 in 7.0 mi Calm Calm - N/A   Overcast
5:56 AM 30.0 °F 26.5 °F 28.9 °F 96% 30.64 in 6.0 mi West 3.5 mph - N/A   Overcast
6:16 AM 30.2 °F - 28.4 °F 93% 30.65 in 7.0 mi Calm Calm - N/A   Overcast
6:51 AM 30.2 °F - 28.4 °F 93% 30.65 in 5.0 mi SSW 2.3 mph - N/A   Overcast
6:56 AM 29.8 °F - 28.8 °F 96% 30.65 in 5.0 mi South 2.3 mph - N/A   Overcast
7:21 AM 30.2 °F - 28.4 °F 93% 30.64 in 5.0 mi Variable 1.2 mph - N/A   Overcast
7:31 AM 30.2 °F - 28.4 °F 93% 30.65 in 4.0 mi Calm Calm - N/A   Overcast
7:56 AM 29.8 °F 26.3 °F 28.8 °F 96% 30.64 in 4.0 mi South 3.5 mph - N/A   Overcast
8:21 AM 30.2 °F - 28.4 °F 93% 30.65 in 3.0 mi South 1.2 mph - N/A   Overcast
8:31 AM 30.2 °F - 28.4 °F 93% 30.65 in 4.0 mi SW 1.2 mph - N/A   Overcast
8:56 AM 29.8 °F - 28.9 °F 96% 30.65 in 3.0 mi Variable 1.2 mph - N/A   Overcast
8:58 AM 30.2 °F - 28.4 °F 93% 30.65 in 3.0 mi SSE 1.2 mph - N/A   Light Freezing Rain
9:13 AM 30.2 °F 26.7 °F 28.4 °F 93% 30.65 in 3.0 mi West 3.5 mph - N/A Rain Light Freezing Rain
9:21 AM 30.2 °F - 28.4 °F 93% 30.65 in 4.0 mi Calm Calm - N/A   Overcast
9:56 AM 30.0 °F 26.5 °F 29.1 °F 96% 30.65 in 3.0 mi SW 3.5 mph - N/A   Overcast
10:49 AM 30.2 °F - 28.4 °F 93% 30.65 in 3.0 mi Variable 1.2 mph - N/A   Light Freezing Rain
10:56 AM 30.0 °F 26.5 °F 29.1 °F 96% 30.65 in 3.0 mi West 3.5 mph - N/A Rain Light Freezing Rain
11:07 AM 30.2 °F - 28.4 °F 93% 30.65 in 4.0 mi WSW 2.3 mph - N/A   Overcast
11:56 AM 30.2 °F - 29.1 °F 96% 30.64 in 5.0 mi West 2.3 mph - N/A   Overcast
12:36 PM 30.2 °F - 28.4 °F 93% 30.63 in 7.0 mi Variable 1.2 mph - N/A   Overcast
12:56 PM 30.4 °F - 28.8 °F 94% 30.62 in 7.0 mi SW 2.3 mph - N/A   Overcast
1:56 PM 30.2 °F - 28.8 °F 94% 30.60 in 7.0 mi SW 2.3 mph - N/A   Overcast
2:56 PM 30.4 °F - 28.8 °F 94% 30.60 in 5.0 mi West 2.3 mph - N/A   Overcast
3:56 PM 30.2 °F 24.3 °F 28.6 °F 94% 30.59 in 6.0 mi West 5.8 mph - N/A   Overcast
4:55 PM 30.2 °F - 28.4 °F 93% 30.58 in 6.0 mi WNW 1.2 mph - N/A   Light Freezing Rain
4:56 PM 29.7 °F - 28.2 °F 94% 30.58 in 6.0 mi West 1.2 mph - N/A   Light Freezing Rain
5:14 PM 30.2 °F 26.7 °F 28.4 °F 93% 30.58 in 10.0 mi SSW 3.5 mph - N/A   Overcast
5:54 PM 30.2 °F - 28.4 °F 93% 30.58 in 8.0 mi SSE 2.3 mph - N/A   Overcast
5:56 PM 29.5 °F - 28.2 °F 95% 30.58 in 8.0 mi SE 2.3 mph - N/A   Overcast
6:56 PM 29.3 °F - 28.2 °F 96% 30.57 in 6.0 mi Variable 2.3 mph - N/A   Overcast
7:56 PM 29.1 °F 25.4 °F 28.2 °F 96% 30.57 in 5.0 mi WSW 3.5 mph - N/A   Overcast
8:56 PM 29.1 °F 24.1 °F 28.0 °F 96% 30.57 in 6.0 mi NE 4.6 mph - N/A   Overcast
9:56 PM 29.1 °F 25.4 °F 27.9 °F 95% 30.58 in 4.0 mi NNW 3.5 mph - N/A   Overcast
10:16 PM 28.4 °F - 28.4 °F 100% 30.58 in 5.0 mi WSW 2.3 mph - N/A   Overcast
10:56 PM 28.8 °F 25.0 °F 27.3 °F 94% 30.58 in 7.0 mi WSW 3.5 mph - N/A   Overcast
11:21 PM 28.4 °F - 26.6 °F 93% 30.58 in 10.0 mi Variable 1.2 mph - N/A   Overcast
11:56 PM 28.9 °F - 27.0 °F 92% 30.57 in 10.0 mi Variable 1.2 mph - N/A   Overcast